sat.trackr.live / text

‹ back to catalog

STARLINK-3708

NORAD 52111 · 2022-029Z

PAYLOAD ACTIVE UNKNOWN

§ Identity

Operator
Country
US
Launch date
2022-03-19
Launch site
AFETR
Launch vehicle
Mass (kg)
RCS (m²)

Purposes: comms

External: N2YO · Heavens-Above · Gunter

§ Orbital elements

Epoch: 2026-05-25T02:56:33.215424Z

Period
95.44 min
Inclination
53.2155°
Eccentricity
0.0001561
Mean motion
15.08841066 rev/d
Perigee alt
538.7 km
Apogee alt
540.8 km
Semi-major
6,917.9 km
B*
1.9341e-5
RAAN
95.9980°
Arg perigee
106.3640°
Mean anomaly
253.7524°
Rev number
23,232

§ Raw data

STARLINK-37081 52111U 22029Z   26145.12260666  .00000020  00000+0  19341-4 0  99952 52111  53.2155  95.9980 0001561 106.3640 253.7524 15.08841066232325

JSON: /api/v1/satellites/52111 · /tle

For live sub-satellite position, see the globe view (requires WebGL).

§ Visibility from observer

Set your observer location to see the next 7 days of passes ≥ 10°. The values pass through the URL so the page stays shareable.

No JS? Fill the form by hand. The geolocation button needs JavaScript.